N8DH Weather Reports


time (UTC)temp
F
wind
direction
speed
knots
gust
knots
rain 1hr
in
rain 24hr
in
rain mn
in
humidity
%
barometer
mb
20260504031510 50 153 1.7 5.2 0.00 0.00 0.00 68 1005.6
20260504030021 51 161 2.6 6.1 0.00 0.00 0.00 67 1005.8
20260504024533 51 181 3.5 7.8 0.00 0.00 0.00 67 1005.9
20260504023005 51 191 2.6 6.1 0.00 0.00 0.00 66 1006.0
20260504021522 51 173 2.6 7.0 0.00 0.00 0.00 65 1006.1
20260504020020 51 190 6.1 10.4 0.00 0.00 0.00 63 1006.1
20260504014532 51 179 3.5 8.7 0.00 0.00 0.00 64 1006.2
20260504013031 52 230 3.5 14.8 0.00 0.00 0.00 62 1006.2
20260504011515 52 208 7.0 13.0 0.00 0.00 0.00 60 1006.3
20260504010019 53 238 7.0 14.8 0.00 0.00 0.00 57 1006.1
20260504004511 55 230 4.3 13.0 0.00 0.00 0.00 51 1006.0
20260504003059 55 209 5.2 7.8 0.00 0.00 0.00 48 1005.5
20260504001524 56 198 3.5 11.3 0.00 0.00 0.00 47 1005.5
20260504000019 56 193 5.2 13.0 0.00 0.00 0.00 45 1005.5
20260503234522 57 223 6.1 10.4 0.00 0.00 0.00 44 1005.6
20260503233019 58 193 5.2 12.2 0.00 0.00 0.00 42 1005.7
20260503231513 58 225 6.1 12.2 0.00 0.00 0.00 43 1005.8
20260503230012 58 211 9.6 20.9 0.00 0.00 0.00 43 1005.8
20260503224510 58 219 6.1 20.9 0.00 0.00 0.00 42 1005.9
20260503223012 59 189 7.0 15.6 0.00 0.00 0.00 41 1005.9
20260503221510 59 194 9.6 15.6 0.00 0.00 0.00 42 1006.0
20260503220026 59 207 7.0 15.6 0.00 0.00 0.00 43 1006.0
20260503214524 59 207 11.3 22.6 0.00 0.00 0.00 40 1006.1
20260503213021 60 192 7.0 14.8 0.00 0.00 0.00 42 1006.1
20260503211516 60 250 7.0 23.5 0.00 0.00 0.00 41 1006.2
20260503210016 61 232 7.8 18.2 0.00 0.00 0.00 38 1006.2
20260503204516 60 191 7.8 17.4 0.00 0.00 0.00 41 1006.4
20260503203035 60 251 6.1 22.6 0.00 0.00 0.00 41 1006.5
20260503201510 60 178 7.8 14.8 0.00 0.00 0.00 42 1006.6
20260503200009 60 207 7.8 19.1 0.00 0.00 0.00 43 1006.8
20260503194526 59 190 10.4 16.5 0.00 0.00 0.00 44 1007.0
20260503193027 61 200 7.0 18.2 0.00 0.00 0.00 44 1007.2
20260503191522 59 216 7.0 20.9 0.00 0.00 0.00 44 1007.6
20260503190034 60 221 5.2 19.1 0.00 0.00 0.00 41 1007.8
20260503184524 60 179 7.8 16.5 0.00 0.00 0.00 43 1007.9
20260503183023 60 225 7.0 17.4 0.00 0.00 0.00 45 1008.1
20260503181519 60 221 5.2 17.4 0.00 0.00 0.00 44 1008.2
20260503180014 59 254 6.1 15.6 0.00 0.00 0.00 42 1008.5
20260503174516 58 190 7.0 15.6 0.00 0.00 0.00 46 1008.6
20260503173011 59 190 9.6 14.8 0.00 0.00 0.00 48 1008.8
20260503171511 59 271 5.2 13.0 0.00 0.00 0.00 49 1009.1
20260503081527 37 200 1.7 3.5 0.00 0.07 0.00 77 1010.4
20260503071513 37 192 2.6 6.1 0.00 0.09 0.00 80 1010.3
20260503054526 38 212 0.0 2.6 0.00 0.13 0.00 83 1010.7
20260503053029 38 198 0.9 3.5 0.00 0.13 0.00 83 1010.8
20260503051521 38 200 0.9 2.6 0.00 0.13 0.00 83 1010.8
20260503050016 38 181 0.9 1.7 0.00 0.13 0.00 82 1010.8
20260503044510 39 182 1.7 3.5 0.00 0.13 0.00 82 1010.8
20260503043016 39 189 0.9 2.6 0.00 0.13 0.00 81 1010.8
20260503041508 40 200 0.0 2.6 0.00 0.13 0.00 80 1010.8
20260503040009 41 182 0.9 2.6 0.00 0.14 0.13 79 1010.9
20260503034524 41 173 0.9 3.5 0.00 0.14 0.13 78 1011.0
20260503033027 41 182 1.7 3.5 0.00 0.14 0.13 78 1011.1